| time (UTC) | temp F | wind direction | speed MPH | gust MPH | rain 1hr in | rain 24hr in | rain mn in | humidity % | barometer mb |
| 20260502234556 | 73 | 320 | 1.0 | 5.0 | 0.00 | 0.00 | 0.00 | 25 | 1015.2 |
| 20260502233048 | 74 | 263 | 1.0 | 4.0 | 0.00 | 0.00 | 0.00 | 25 | 1015.3 |
| 20260502231552 | 72 | 290 | 1.0 | 10.0 | 0.00 | 0.00 | 0.00 | 28 | 1015.4 |
| 20260502230043 | 73 | 178 | 2.0 | 6.0 | 0.00 | 0.00 | 0.00 | 26 | 1015.5 |
| 20260502224549 | 73 | 55 | 2.0 | 6.0 | 0.00 | 0.00 | 0.00 | 26 | 1015.6 |
| 20260502223050 | 73 | 336 | 1.0 | 5.0 | 0.00 | 0.00 | 0.00 | 24 | 1015.7 |
| 20260502221551 | 72 | 274 | 1.0 | 3.0 | 0.00 | 0.00 | 0.00 | 29 | 1015.8 |
| 20260502220051 | 72 | 47 | 1.0 | 5.0 | 0.00 | 0.00 | 0.00 | 28 | 1015.8 |
| 20260502214552 | 72 | 191 | 1.0 | 8.0 | 0.00 | 0.00 | 0.00 | 28 | 1016.0 |
| 20260502213058 | 72 | 218 | 1.0 | 6.0 | 0.00 | 0.00 | 0.00 | 31 | 1016.1 |
| 20260502211555 | 71 | 0 | 2.0 | 5.0 | 0.00 | 0.00 | 0.00 | 31 | 1016.2 |
| 20260502210049 | 72 | 35 | 5.0 | 11.0 | 0.00 | 0.00 | 0.00 | 30 | 1016.2 |
| 20260502204556 | 72 | 54 | 4.0 | 11.0 | 0.00 | 0.00 | 0.00 | 31 | 1016.4 |
| 20260502203105 | 72 | 60 | 4.0 | 9.0 | 0.00 | 0.00 | 0.00 | 29 | 1016.5 |
| 20260502201554 | 72 | 43 | 4.0 | 10.0 | 0.00 | 0.00 | 0.00 | 31 | 1016.6 |
| 20260502200042 | 72 | 50 | 5.0 | 11.0 | 0.00 | 0.00 | 0.00 | 33 | 1016.7 |
| 20260502194541 | 72 | 34 | 4.0 | 10.0 | 0.00 | 0.00 | 0.00 | 32 | 1016.7 |
| 20260502193053 | 71 | 50 | 5.0 | 11.0 | 0.00 | 0.00 | 0.00 | 31 | 1016.7 |
| 20260502191548 | 71 | 29 | 5.0 | 10.0 | 0.00 | 0.00 | 0.00 | 31 | 1017.0 |
| 20260502190047 | 69 | 28 | 5.0 | 13.0 | 0.00 | 0.00 | 0.00 | 32 | 1017.3 |
| 20260502184557 | 69 | 12 | 6.0 | 11.0 | 0.00 | 0.00 | 0.00 | 35 | 1017.5 |
| 20260502183049 | 68 | 49 | 5.0 | 11.0 | 0.00 | 0.00 | 0.00 | 36 | 1017.6 |
| 20260502181548 | 67 | 37 | 5.0 | 9.0 | 0.00 | 0.00 | 0.00 | 37 | 1017.8 |
| 20260502163051 | 56 | 4 | 2.0 | 7.0 | 0.00 | 0.00 | 0.00 | 49 | 1019.2 |
| 20260502161551 | 55 | 33 | 3.0 | 8.0 | 0.00 | 0.00 | 0.00 | 48 | 1019.3 |
| 20260502151553 | 49 | 210 | 4.0 | 9.0 | 0.00 | 0.00 | 0.00 | 56 | 1019.7 |
| 20260502123053 | 41 | 186 | 4.0 | 10.0 | 0.00 | 0.00 | 0.00 | 64 | 1020.4 |
| 20260502121552 | 42 | 177 | 5.0 | 11.0 | 0.00 | 0.00 | 0.00 | 63 | 1020.3 |
| 20260502114551 | 42 | 186 | 4.0 | 12.0 | 0.00 | 0.00 | 0.00 | 64 | 1020.2 |
| 20260502113051 | 43 | 160 | 5.0 | 12.0 | 0.00 | 0.00 | 0.00 | 61 | 1020.0 |
| 20260502111604 | 41 | 169 | 6.0 | 11.0 | 0.00 | 0.00 | 0.00 | 66 | 1020.0 |
| 20260502110050 | 41 | 174 | 1.0 | 8.0 | 0.00 | 0.00 | 0.00 | 66 | 1019.9 |
| 20260502104550 | 43 | 178 | 3.0 | 11.0 | 0.00 | 0.00 | 0.00 | 63 | 1019.9 |
| 20260502103101 | 41 | 160 | 4.0 | 14.0 | 0.00 | 0.00 | 0.00 | 66 | 1019.8 |
| 20260502101601 | 42 | 0 | 2.0 | 11.0 | 0.00 | 0.00 | 0.00 | 65 | 1019.8 |
| 20260502070050 | 43 | 0 | 0.0 | 1.0 | 0.00 | 0.00 | 0.00 | 62 | 1019.3 |
| 20260502064547 | 43 | 0 | 0.0 | 2.0 | 0.00 | 0.00 | 0.00 | 62 | 1019.3 |
| 20260502063048 | 44 | 0 | 0.0 | 2.0 | 0.00 | 0.00 | 0.00 | 61 | 1019.2 |
| 20260502061553 | 45 | 261 | 0.0 | 2.0 | 0.00 | 0.00 | 0.00 | 59 | 1019.0 |
| 20260502060050 | 46 | 232 | 0.0 | 2.0 | 0.00 | 0.00 | 0.00 | 57 | 1019.0 |
| 20260502054555 | 46 | 0 | 0.0 | 3.0 | 0.00 | 0.00 | 0.00 | 55 | 1018.8 |
| 20260502053047 | 47 | 277 | 0.0 | 3.0 | 0.00 | 0.00 | 0.00 | 55 | 1018.8 |
| 20260502051548 | 48 | 288 | 1.0 | 4.0 | 0.00 | 0.00 | 0.00 | 55 | 1018.7 |
| 20260502050049 | 48 | 0 | 0.0 | 3.0 | 0.00 | 0.00 | 0.00 | 54 | 1018.5 |
| 20260502044549 | 48 | 0 | 1.0 | 4.0 | 0.00 | 0.00 | 0.00 | 52 | 1018.4 |
| 20260502043046 | 49 | 0 | 0.0 | 2.0 | 0.00 | 0.00 | 0.00 | 53 | 1018.3 |
| 20260502041549 | 48 | 269 | 1.0 | 2.0 | 0.00 | 0.00 | 0.00 | 53 | 1018.4 |
| 20260502040052 | 48 | 0 | 0.0 | 2.0 | 0.00 | 0.00 | 0.00 | 54 | 1018.3 |
| 20260502034550 | 49 | 246 | 0.0 | 2.0 | 0.00 | 0.00 | 0.00 | 53 | 1018.3 |
| 20260502033049 | 50 | 210 | 1.0 | 2.0 | 0.00 | 0.00 | 0.00 | 50 | 1018.0 |
| 20260502031548 | 52 | 222 | 1.0 | 2.0 | 0.00 | 0.00 | 0.00 | 50 | 1017.9 |
| 20260502030054 | 53 | 0 | 0.0 | 3.0 | 0.00 | 0.00 | 0.00 | 46 | 1017.6 |
| 20260502024552 | 55 | 201 | 1.0 | 4.0 | 0.00 | 0.00 | 0.00 | 45 | 1017.4 |
| 20260502023052 | 57 | 0 | 1.0 | 3.0 | 0.00 | 0.00 | 0.00 | 42 | 1017.2 |
| 20260502021549 | 59 | 174 | 1.0 | 4.0 | 0.00 | 0.00 | 0.00 | 38 | 1017.1 |
| 20260502020047 | 60 | 224 | 1.0 | 3.0 | 0.00 | 0.00 | 0.00 | 32 | 1017.1 |
| 20260502014549 | 62 | 243 | 2.0 | 6.0 | 0.00 | 0.00 | 0.00 | 34 | 1017.1 |
| 20260502013048 | 61 | 222 | 3.0 | 7.0 | 0.00 | 0.00 | 0.00 | 34 | 1017.1 |
| 20260502011549 | 66 | 213 | 2.0 | 6.0 | 0.00 | 0.00 | 0.00 | 24 | 1017.1 |
| 20260502010052 | 67 | 242 | 2.0 | 7.0 | 0.00 | 0.00 | 0.00 | 26 | 1017.1 |
| 20260502004603 | 69 | 205 | 2.0 | 4.0 | 0.00 | 0.00 | 0.00 | 24 | 1017.0 |
| 20260502003047 | 71 | 226 | 2.0 | 8.0 | 0.00 | 0.00 | 0.00 | 26 | 1017.2 |
| 20260502001542 | 72 | 291 | 3.0 | 7.0 | 0.00 | 0.00 | 0.00 | 23 | 1017.2 |
| 20260502000100 | 72 | 176 | 2.0 | 9.0 | 0.00 | 0.00 | 0.00 | 25 | 1017.2 |